Location: Barcelona
(41.3830°N, 2.1830°E)
Time: 10:45:58
(UTC+02:00)

ISS - Pass Details

Date: 06 April 2020
Orbit: 417 x 419 km, 51.6° (Epoch: 31 May)

Event Time Altitude Azimuth Distance (km) Brightness Sun altitude
Rises 21:47:19 0° 292° (WNW) 2,362 1.9 -16.0°
Reaches altitude 10° 21:49:50 10° 273° (W) 1,494 0.1 -16.5°
Maximum altitude 21:52:13 18° 228° (SW) 1,086 -1.4 -16.9°
Enters shadow 21:54:04 13° 189° (S) 1,341 -1.4 -17.2°
